{"data":{"norad_id":38091,"epoch":"2026-09-20T00:05:40.335648Z","epoch_age_seconds":57345,"freshness":"FRESH","line1":"1 38091U 12008A   26263.00393907  .00000054  00000+0  00000+0 0  9999","line2":"2 38091   3.8046  69.0027 0006723 239.3530 110.6472  1.00270992 53314","mean_motion":1.00270992,"eccentricity":0.0006723,"inclination_deg":3.8046,"raan_deg":69.0027,"arg_perigee_deg":239.353,"mean_anomaly_deg":110.6472,"bstar":0,"rev_number":5331,"period_min":1436.1082615,"perigee_km":35758.469770587,"apogee_km":35815.164768098,"semimajor_km":42164.954269343,"source":"CELESTRAK","updated_at":"2026-09-20T09:00:46.671998Z"}}